Hourly Data Report for December 14, 2017

CARBERRY CS
MANITOBA

49°54'20.900" N
99°21'26.800" W
383.50 m
5010547
71170
WZE

Download Data

Hourly Data (December 2017)
Hourly Data Report for December 14, 2017
TIME
LST
Temp Definition
°C
Dew Point Definition
°C
Rel Hum Definition
%
Precip. Amount Definition
mm

Wind Dir Definition
10's deg

Wind Spd Definition
km/h
Visibility Definition
km
Stn Press Definition
kPa
Hmdx Definition


Wind Chill Definition


Weather Definition


00:00 -7.7 -9.3 88 0.0 20 5   96.88   -10 LegendNANA
01:00 -7.6 -9.2 88 0.0 23 5   96.89   -10 LegendNANA
02:00 -7.3 -8.9 88 0.0 26 8   96.91   -11 LegendNANA
03:00 -7.1 -8.7 89 0.0 1 10   96.98   -12 LegendNANA
04:00 -7.1 -8.7 88 0.0 29 4   96.97   -9 LegendNANA
05:00 -6.9 -8.3 89 0.0 32 8   97.06   -11 LegendNANA
06:00 -6.9 -8.0 91 0.0 33 10   97.12   -12 LegendNANA
07:00 -6.9 -8.3 89 0.0 35 10   97.16   -12 LegendNANA
08:00 -7.5 -9.2 87 0.0 36 10   97.21   -12 LegendNANA
09:00 -7.4 -9.1 88 0.0 36 5   97.27   -10 LegendNANA
10:00 -7.3 -9.0 87 0.0 5 4   97.28   -9 LegendNANA
11:00 -6.7 -9.1 83 0.0 0 1   97.25   -7 LegendNANA
12:00 -5.7 -8.3 82 0.0 15 5   97.21   -8 LegendNANA
13:00 -4.4 -7.1 82 0.0 19 3   97.13   -6 LegendNANA
14:00 -3.2 -6.7 77 0.0 32 15   97.10   -8 LegendNANA
15:00 -4.0 -6.9 80 0.0 2 12   97.09   -9 LegendNANA
16:00 -5.5 -7.8 84 0.0 5 8   97.07   -9 LegendNANA
17:00 -5.7 -7.9 85 0.0 4 9   97.11   -10 LegendNANA
18:00 -6.1 -8.0 86 0.0 3 7   97.13   -9 LegendNANA
19:00 -6.2 -8.1 86 0.0 4 6   97.12   -9 LegendNANA
20:00 -6.4 -8.2 87 0.0 1 9   97.11   -11 LegendNANA
21:00 -6.7 -8.3 89 0.0 3 10   97.04   -11 LegendNANA
22:00 -7.4 -9.7 84 0.0 3 11   97.06   -12 LegendNANA
23:00 -7.9 -9.8 86 0.0 6 12   96.96   -13 LegendNANA

Notes on Data Quality.

Legend

  • E = Estimated
  • M = Missing
  • NA = Not Available*
  • [empty] = Indicates an unobserved value
Date modified: